KUIPER-00260

Last updated on Sun Mar 15 2026 00:02:06 GMT+0000 (Coordinated Universal Time)

1 67787U 26030Z 26073.56293294 .00043092 00000+0 11856-2 0 9994 2 67787 51.8798 195.4863 0001553 52.6453 307.4674 15.36750969 5759
UTC large
Height (km)
Speed (km/s)
/
Latitude / Longitude
Inclination (degrees)
Orbital Period (minutes)
Azimuth
Elevation
Range (km)
Doppler Factor

Next 0 passes for location: London (51.5072 / 0.1276)

Sorry there are no passes over London.